Regional Weather Roundup
Issued by NWS Mobile, AL

Home | Current Version | Previous Version | Text Only | Print | Product List | Glossary On
Versions: 1 2 3 4 5 6 7 8 9 10 11 12 13 14 15 16 17 18 19 20 21 22 23 24 25 26 27 28 29 30 31 32 33 34 35 36 37 38 39 40 41 42 43 44 45 46 47 48 49 50
000
ASUS44 KMOB 281612
RWRMOB
REGIONAL WEATHER ROUNDUP
NATIONAL WEATHER SERVICE MOBILE AL
1100 AM CDT THU JUL 28 2016

NOTE: "FAIR" INDICATES FEW OR NO CLOUDS BELOW 12,000 FEET WITH NO
      SIGNIFICANT WEATHER AND/OR OBSTRUCTIONS TO VISIBILITY.

  * THESE STATIONS ARE PART OF THE UNIVERSITY OF SOUTH ALABAMA
    MESONET AND ARE NOT UNDER NWS OR FAA QUALITY CONTROL.

ALZ061>064-281700-
COASTAL ALABAMA

CITY           SKY/WX    TMP DP  RH WIND       PRES   REMARKS
MOBILE REG APT PTSUNNY   87  74  64 SW8       30.08R HX  95
BROOKLEY FIELD MOSUNNY   88  76  67 VRB5      30.08R HX  99
USA CAMPUS*    NOT AVBL
DOG RIVER*     NOT AVBL


CITY           SKY/WX    TMP DP  RH WIND       PRES   REMARKS
MOUNT VERNON*  NOT AVBL
SARALAND*      NOT AVBL
BAY MINETTE*   NOT AVBL
LOXLEY*        NOT AVBL
ROBERTSDALE*   NOT AVBL
FAIRHOPE*      NOT AVBL
ELBERTA*       NOT AVBL
FOLEY*         NOT AVBL
GRAND BAY*     NOT AVBL
DAUPHIN ISLND* NOT AVBL
BON SCOUR NWR* NOT AVBL
GULF SHORES    PTSUNNY   88  78  71 SW9G20    30.07S HX 102

$$

ALZ051>060-281700-
INTERIOR SOUTHWEST AND SOUTH CENTRAL ALABAMA

CITY           SKY/WX    TMP DP  RH WIND       PRES   REMARKS
GREENVILLE     SUNNY     88  70  55 W9        30.06S
EVERGREEN      PTSUNNY   87  73  62 W8        30.07R
CASTLEBERRY*   NOT AVBL
ATMORE*        NOT AVBL
DIXIE*         NOT AVBL
ANDALUSIA/OPP  MOSUNNY   93  72  50 W5        30.07S HX 101
ANDALUSIA*     NOT AVBL
FLORALA APT    MOSUNNY   88  71  57 W6        30.09S
FLORALA*       NOT AVBL

$$

FLZ001>006-281700-
WESTERN FLORIDA PANHANDLE

CITY           SKY/WX    TMP DP  RH WIND       PRES   REMARKS
PENSACOLA      MOSUNNY   89  75  63 S9        30.07R HX  99
NAS PENSACOLA  MOSUNNY   88  75  65 S9        30.07R HX  97
MILTON         MOSUNNY   88  76  67 S9        30.07R HX  99
WHTNG S FIELD  MOSUNNY   91  79  67 VRB7      30.07  HX 107


CITY           SKY/WX    TMP DP  RH WIND       PRES   REMARKS
WALNUT HILL*   NOT AVBL
JAY*           NOT AVBL
DUKE FIELD     MOSUNNY   89  73  59 S10       30.06S HX  98
CRESTVIEW      MOSUNNY   89  71  55 CALM      30.08S HX  95
VALPARAISO     MOSUNNY   88  75  64 S10       30.07S HX  98
DESTIN         SUNNY     91  78  65 S9        30.07S HX 106

$$

MSZ076-079-281700-
INTERIOR SOUTHEAST MISSISSIPPI

CITY           SKY/WX    TMP DP  RH WIND       PRES   REMARKS
LEAKESVILLE*   NOT AVBL
AGRICOLA*      NOT AVBL

$$

MARINE OBSERVATIONS

STATION/POSITION TIME  TEMP    WIND        PRES    WAVE
                       AIR SEA DIR/SP/G            HT/PER
                 (UTC) (F)     (DEG/KT/KT) (MB)    (FT/S)
PASCAGOULA       1500   86     230/  7/  9 1017.9R
PETIT BOIS ISLND 1500   85     220/  6/  7 1018.7R
GRAND BAY        1445   87     210/  7     1019.0S
KATRINA CUT      1500   84     220/  7     1018.6S
CEDAR POINT      1500   84     220/  7     1018.0S
E DAUPHIN ISLAND 1500   85     190/  5/  7 1017.9R
MIDDLE BAY LIGHT 1500   84     190/  8     1018.3R
USCG MOBILE BAY  1500   86 86  200/  7/  9 1018.3S
STATE DOCKS      1500   88 87              1017.6S
MEAHER PARK      1500   84     190/  6     1017.3F
WEEKS BAY        1400   87                   N/A
FORT MORGAN      1500   85     220/  8/ 10 1017.8R
12 S ORANGE BCH  1550   85 87  210/  8/ 10 1018.5R   2/ 4
PENSACOLA BAY    1500   86 87  200/  7/  8 1018.2R
64 S DAUPHIN ISL 1500   85 87  150/  8/ 10 1017.6F
67 S FORT MORGAN 1530   84     150/  6     1018.3S

$$

SELECTED LOCATIONS ACROSS THE REGION

CITY           SKY/WX    TMP DP  RH WIND       PRES   REMARKS
NEW ORLEANS    MOSUNNY   90  76  63 SW9       30.06R HX 101
GULFPORT       MOSUNNY   87  77  72 VRB7      30.06R HX  99
PASCAGOULA AP  SUNNY     89  76  65 SW7       30.07R HX 100
PASCAGOULA*    NOT AVBL
HATTIESBURG    MOSUNNY   87  74  64 VRB7      30.07R HX  95
LAUREL         SUNNY    N/A N/A N/A SW7       30.08R
MERIDIAN       CLOUDY    82  73  74 SW7       30.05S
JACKSON        CLOUDY    79  71  76 W12       30.05S
MONTGOMERY     MOSUNNY   89  69  51 SW10      30.05S
TROY           SUNNY     87  70  56 SW9       30.08S
KINSTON*       NOT AVBL
GENEVA*        NOT AVBL
ASHFORD*       NOT AVBL
DOTHAN         SUNNY     88  69  53 W7        30.10F
PANAMA CITY    MOSUNNY   89  76  65 SE5       30.06F HX 100

$$




USA.gov is the U.S. government's official web portal to all federal, state and local government web resources and services.